Regional Weather Roundup
Issued by NWS Sioux Falls, SD

Home | Current Version | Previous Version | Text Only | Print | Product List | Glossary On
Versions: 1 2 3 4 5 6 7 8 9 10 11 12 13 14 15 16 17 18 19 20 21 22 23 24 25 26 27 28 29 30 31 32 33 34 35 36 37 38 39 40 41 42 43 44 45 46 47 48 49 50
426
ASUS43 KFSD 181702
RWRFSD

WEATHER ROUNDUP FOR SE SOUTH DAKOTA/SW MINNESOTA/NW IOWA
NATIONAL WEATHER SERVICE SIOUX FALLS SD
1100 AM CST SAT NOV 18 2017

NOTE: "FAIR" INDICATES FEW OR NO CLOUDS BELOW 12,000 FEET WITH NO
SIGNIFICANT WEATHER AND OR OBSTRUCTIONS TO VISIBILITY.


SDZ038>040-050-052>070-181800-
SOUTHEAST SOUTH DAKOTA

CITY           SKY/WX    TMP DP  RH WIND       PRES   REMARKS
BROOKINGS      PTSUNNY   30  20  66 NW23G30   29.98R WCI  17
CHAMBERLAIN    MOSUNNY   36  26  68 NW25      30.11R
HURON          MOSUNNY   31  18  58 NW18G30   30.09R WCI  19
MADISON        PTSUNNY   32  25  74 NW24G30   29.99R WCI  19
MITCHELL       MOSUNNY   34  25  69 NW21G30   30.08R WCI  22
SIOUX FALLS    MOSUNNY   37  24  59 N29G38    29.99R
WINNER         CLOUDY    37  29  72 NW23G29   30.13R
YANKTON        SUNNY     37  26  64 NW25G38   30.03R
$$

MNZ071-072-080-081-089-090-097-098-181800-
SOUTHWEST MINNESOTA

CITY           SKY/WX    TMP DP  RH WIND       PRES   REMARKS
FAIRMONT       SUNNY     33  21  61 NW29G38   29.86R WCI  19
JACKSON        SUNNY     32  21  64 NW24      29.88R WCI  19
LUVERNE        SUNNY     34  23  64 N21G32    29.95R WCI  22
MARSHALL       MOSUNNY   30  20  66 N25       29.96R WCI  16
MONTEVIDEO     CLOUDY    28  19  69 N23G30    29.98R WCI  14
PIPESTONE      SUNNY     32  21  64 N17G29    29.94R WCI  21
REDWOOD FALLS  SUNNY     30  17  58 NW15G24   29.93R WCI  19
WINDOM         SUNNY     30  16  55 NW24      29.89R WCI  16
WORTHINGTON    MOSUNNY   32  20  61 NW21      29.92R WCI  20
$$

IAZ001>003-012>014-020>022-031-032-NEZ013-014-SDZ071-181800-
NORTHWEST IOWA

CITY           SKY/WX    TMP DP  RH WIND       PRES   REMARKS
CHEROKEE       CLOUDY    38  29  69 N16G23    29.92R
DENISON        CLOUDY    39  28  65 NW17G24   29.92R
ESTHERVILLE    SUNNY     33  23  66 NW24G33   29.87R WCI  20
LE MARS        SUNNY     39  28  65 NW20G25   29.95R
ORANGE CITY    SUNNY     39  27  60 NW17G35   29.93R
SHELDON        SUNNY     37  25  60 NW24G32   29.91R
SIOUX CITY     SUNNY     40  29  64 N25G33    29.96R
SPENCER        SUNNY     37  22  54 NW23      29.90R
STORM LAKE     PTSUNNY   36  27  69 NW21      29.90R
$$

ABBREVIATIONS USED IN REMARKS
   TC - TEMPERATURE IN CELSIUS
  WCI - WIND CHILL INDEX
   HX - HEAT INDEX
  VSB - VISIBILITY





USA.gov is the U.S. government's official web portal to all federal, state and local government web resources and services.